PEGASUS DEB, 24197

Orbit data source: Space-Track

PEGASUS DEB, 24197 is space debris in LEO originally from a launch on Thu, 19 May 1994 UTC launched from the Air Force Western Test Range (AFWTR). Debris objects in space refer to the collection of defunct objects orbiting the Earth. Examples of debris include non-operational satellites, rocket bodies, and fragments generated from explosions, collisions, or faulty payload assembly.

Loading next visibility...
Identifier
24197, 1994-029JY
Orbit
LEO
Country
Flag of USUS
Related business
Manufacturer
Unknown
Mission
Spacecraft
Bus & Motor
Unknown
Mass
Unknown
Launch date (UTC)
1994-05-19 (32 years ago)
Launch vehicle
Unknown
Launch site
Air Force Western Test Range (AFWTR)
Object type
Payload
Rocket body
Debris
Shape & HBR
Unknown shape, 0.1 m
Radar Cross Section
Small (<0.1 m²)

Expand to show TLE details & history
Last TLE update: 14 hours ago

TLE from 14 hours ago
0 PEGASUS DEB
1 24197U 94029JY  26063.41360200  .00005978  00000-0  58006-3 0  9991
2 24197  82.0862  51.8959 0070900 297.9841 215.1452 14.90601903681136
Epoch: 2026-03-04T09:55Z
TLE epoch observation values (Epoch: 2026-03-04T09:55:35.212Z)
Latitude
27.09298°
Longitude
-83.23524°
Altitude
640.02 km
Speed
7.519 km/s
True Right ascension
15h 11m 21s
True Declination
26° 57' 05"
Sunlit
Object was in full shadow at epoch
Visualization orbit readout
Latitude
Unknown
Longitude
Unknown
Altitude
Unknown
Speed
Unknown
Apparent Right ascension
Unknown
Apparent Declination
Unknown
Sunlit
N/A
Visualization observer readout
Local Sidereal Time
03:34:10
Azimuth
Unknown
Elevation
Unknown
Doppler factor
Unknown
Orbital elements
Apogee altitude
642.511 km
Perigee altitude
543.659 km
Semi-major axis
6,971.222 km
Eccentricity
0.00709
Inclination
82.0862°
RAAN
51.8959°
Arg. of periapsis
297.9841°
True anomaly
214.68088°
Mean anomaly
215.1452°
Eccentric anomaly
214.9127°
Mean motion
3.72889 °/min
Orbital period
96.54 mins
BSTAR
0.00058006
Loading maneuver chart data...
Computing Atmospheric mass density...

Documentation

Showing up to 5 results
|